User: anonymous   Login
Location: Caltech
(34.1382°N, 118.1253°W)
Time: 09:12:04
(UTC-08:00)
Language:

OAO 1 Rocket - Orbit

View from above orbital plane
View from above orbital plane
View from above satellite
View from above satellite

Ground track
Ground track

The orbit data is extracted from the following two-line orbital elements,

1 02144U 66031B   16043.44396249  .00000221  00000-0  71668-4 0  9999
2 02144  35.0435  38.7514 0008755 213.1451 146.8691 14.42521150617209
Epoch (UTC): 12 February 2016 10:39:18
Eccentricity: 0.0008755
inclination: 35.0435°
perigee height: 744 km
apogee height: 756 km
right ascension of ascending node: 38.7514°
argument of perigee: 213.1451°
revolutions per day: 14.42521150
mean anomaly at epoch: 146.8691°
orbit number at epoch: 61720

The dashed part of the orbit path shows where the satellite is in the earth's shadow,  

DLR